Theta_e
331 328 328 329 329 329 328 328 328 327 328 327 327 327 326 327 328 327 328 330 330 330 328 327 329 330 331 331 331 331 331 331 330 327 327 328 328 327 327 326 327 328 327 327 327 326 326 325 324 324 323 321 320 318 316 315 316 317 315 313 312 310 308
331 328 327 328 327 328 328 328 328 327 327 327 327 327 327 328 327 327 328 329 329 329 328 328 329 329 331 331 330 330 331 331 328 326 326 328 328 327 327 326 328 328 327 328 327 325 326 325 325 324 321 319 318 316 315 316 315 314 314 313 312 309 306
330 327 326 327 327 328 328 328 327 326 326 327 327 327 327 328 328 327 327 327 328 327 327 329 328 327 328 328 328 328 328 328 327 326 326 327 328 328 327 326 328 328 327 328 327 326 326 326 325 323 322 321 319 315 312 314 315 314 315 314 312 309 307
329 326 325 326 327 327 328 327 325 324 325 324 325 324 325 326 328 328 327 326 326 326 327 329 327 325 325 325 327 328 327 326 326 327 327 327 329 329 327 326 327 328 326 327 327 327 326 326 325 323 322 321 319 315 310 310 313 313 313 314 311 308 308
325 323 323 324 325 327 328 326 323 322 322 321 320 320 321 322 324 326 326 326 325 325 327 329 327 325 325 324 326 327 327 327 326 327 327 327 329 330 329 327 327 327 325 325 325 326 326 326 325 324 323 321 318 315 310 309 311 311 311 312 309 308 308
323 322 323 322 323 325 325 324 323 324 323 322 320 319 319 319 320 322 324 326 326 324 325 326 327 327 326 325 325 327 327 327 327 326 327 327 328 329 328 326 326 326 325 324 324 325 326 325 325 324 322 321 318 314 311 310 310 310 310 309 309 309 308
322 322 324 323 322 324 324 322 325 326 325 324 323 321 319 318 318 319 321 324 325 325 324 324 327 328 326 325 326 326 326 326 326 326 326 326 326 327 325 323 325 326 324 324 325 326 326 325 325 324 322 321 318 314 312 311 310 310 310 309 309 309 308
322 323 325 324 322 324 325 324 325 326 326 326 324 322 319 318 318 318 319 320 321 324 324 324 325 326 325 325 325 325 326 325 325 325 325 324 324 325 325 322 323 325 324 324 325 326 325 325 325 323 322 320 317 314 313 311 311 311 310 309 309 309 308
322 324 325 323 319 320 323 325 325 325 326 326 324 321 319 319 319 318 317 318 318 321 324 324 324 325 324 324 324 325 325 324 324 325 324 324 323 324 326 324 323 324 324 324 325 326 325 325 325 323 321 319 317 315 314 312 313 312 310 310 309 308 307
322 323 321 318 317 317 320 322 322 322 322 322 321 319 319 319 319 318 317 318 317 318 320 321 323 324 324 323 324 324 324 324 325 325 325 324 324 325 328 327 325 324 324 324 326 326 324 324 324 322 320 318 316 315 314 314 314 312 311 311 310 308 307
321 320 317 317 319 319 320 321 321 320 319 317 317 317 318 319 319 318 318 318 318 319 319 320 320 322 322 323 325 325 325 326 327 327 325 325 326 328 329 327 326 326 326 325 326 325 324 323 323 321 319 317 316 315 314 314 314 313 312 312 311 309 307
322 319 317 319 320 321 321 321 320 319 317 316 317 317 319 320 319 318 319 318 318 320 321 321 319 318 321 323 324 325 325 325 327 327 324 324 326 327 326 326 327 328 325 324 325 324 323 323 322 320 318 317 315 314 314 314 314 314 314 313 313 310 308
321 320 319 319 321 322 322 320 319 318 317 316 316 316 320 322 321 320 319 317 317 318 320 321 319 317 321 323 323 324 323 323 325 325 321 320 322 324 325 327 328 328 325 324 324 322 322 323 322 320 318 316 315 314 314 314 314 316 315 314 314 311 309
322 321 319 319 322 323 322 320 319 317 318 316 314 317 321 322 321 321 319 317 317 317 318 318 317 318 322 324 324 324 321 320 323 323 320 320 322 324 326 328 329 328 325 325 324 322 321 321 320 318 318 316 315 315 315 315 314 315 315 315 314 313 310
322 322 320 320 322 322 321 320 318 318 318 315 315 320 322 318 318 320 318 317 318 318 319 318 318 321 323 323 322 320 318 319 322 322 321 321 322 322 325 328 328 326 324 325 325 322 320 319 318 317 317 316 315 315 315 315 314 315 315 314 314 314 312
322 322 320 320 321 322 322 320 318 319 319 315 315 319 319 315 317 320 319 319 320 321 321 321 321 322 321 320 320 319 319 321 322 321 321 321 319 318 319 322 324 323 323 325 324 322 320 319 317 316 316 316 316 315 315 315 314 315 315 314 314 314 313
321 320 320 320 320 321 321 319 319 320 320 318 316 314 314 315 317 319 320 321 321 321 321 322 322 321 321 320 319 319 320 321 321 320 320 319 319 317 316 317 318 319 321 324 324 323 321 319 318 316 316 316 316 316 316 316 315 315 315 315 314 314 314
320 319 319 320 320 320 320 319 319 319 318 317 316 313 313 315 318 319 320 320 320 320 320 320 321 321 321 320 319 319 318 319 320 320 319 318 319 319 318 316 315 316 317 320 323 323 320 319 319 318 317 316 316 317 317 316 316 316 315 315 315 314 314
319 319 320 320 320 321 321 319 318 318 318 316 315 315 315 316 317 319 319 319 319 319 319 319 320 320 321 321 320 319 318 318 318 318 318 318 318 318 319 318 315 315 315 316 317 319 319 319 320 319 318 317 316 317 317 316 316 316 316 316 316 315 314
319 319 320 320 320 321 321 320 318 318 318 316 314 314 315 315 316 318 318 318 318 318 317 318 319 319 319 320 320 320 319 319 318 318 318 318 318 318 318 317 315 315 316 315 315 316 317 318 319 319 319 318 318 317 317 317 316 316 317 316 316 316 315
320 320 320 319 320 320 318 318 317 315 316 316 314 315 314 314 316 317 317 317 317 317 316 316 317 317 318 318 318 319 320 320 320 319 319 319 318 317 316 315 315 315 315 315 315 315 316 317 317 318 318 318 317 317 317 317 317 316 316 316 316 315 315
321 321 320 320 321 320 317 316 314 313 315 316 315 315 315 314 315 315 315 317 316 315 315 314 314 315 316 317 316 316 317 320 320 320 319 317 314 313 313 313 314 315 314 314 315 314 316 316 316 317 318 317 317 317 317 317 317 317 316 316 316 316 315
321 320 320 320 320 319 316 314 312 311 315 317 314 315 316 316 316 316 316 315 313 310 310 310 310 310 312 314 315 315 316 318 319 318 317 317 315 313 314 313 312 312 313 314 314 314 314 314 313 314 317 317 317 317 318 317 317 317 317 316 316 316 315
320 320 320 320 319 317 316 315 312 310 312 314 314 313 315 316 316 317 315 313 310 309 310 310 310 310 310 311 313 315 315 317 318 318 318 318 317 316 316 316 313 312 312 312 313 312 312 312 312 312 313 313 313 314 315 317 317 317 317 316 316 316 316
320 320 320 319 318 317 317 316 315 310 309 312 313 312 313 314 314 314 314 313 312 312 312 312 312 312 311 312 312 313 315 315 315 317 318 319 319 318 318 319 317 314 313 313 313 313 313 313 312 312 311 311 311 311 312 313 315 317 318 317 317 316 316
320 320 320 319 318 318 318 317 315 310 309 311 312 312 313 315 315 314 314 313 313 313 313 314 314 313 313 312 312 313 316 315 315 317 317 317 318 318 319 319 318 315 314 313 313 313 313 313 312 311 311 311 311 311 311 311 312 313 316 317 318 318 317
320 319 319 318 318 318 318 316 314 311 309 311 312 313 314 315 317 316 315 314 314 314 314 314 314 314 314 314 313 314 316 315 315 316 315 315 315 316 316 316 317 317 316 314 313 314 313 314 313 312 311 311 311 311 311 311 311 312 313 315 316 317 318
319 319 318 318 318 317 316 314 314 311 309 310 312 313 314 315 317 317 316 315 315 314 314 314 314 314 314 314 314 314 314 314 314 314 314 313 313 313 313 313 314 315 316 315 314 314 313 314 314 313 312 312 312 312 311 311 311 312 313 313 314 315 317
318 318 318 317 317 316 314 313 313 312 311 311 312 314 314 315 317 318 318 317 317 316 315 314 314 314 314 314 315 315 315 315 315 315 315 314 314 314 314 314 314 314 315 315 315 314 313 314 314 314 314 313 313 314 314 313 312 313 314 314 314 315 316
317 317 317 316 316 315 314 313 313 312 313 314 315 316 316 317 317 318 318 318 318 318 317 316 316 316 316 316 316 316 316 317 317 317 317 317 317 317 317 317 317 317 317 318 317 316 316 316 316 316 316 316 316 316 316 316 315 315 315 315 315 315 315
315 315 315 316 315 315 314 314 314 314 315 316 316 316 317 318 318 318 319 319 319 319 318 318 318 318 317 318 318 318 318 318 318 318 318 318 318 318 318 319 319 319 319 319 319 318 319 319 318 319 318 319 319 319 319 319 318 317 317 316 316 316 316
314 314 315 315 315 315 314 315 314 314 315 315 315 315 315 316 316 317 317 317 318 319 319 318 318 318 318 318 318 318 318 317 318 318 318 317 317 317 317 317 317 317 317 317 317 317 317 317 317 317 318 318 319 318 319 320 320 320 319 318 317 317 317
313 314 314 313 313 312 313 314 314 314 315 315 315 315 314 315 315 315 315 314 315 316 317 317 316 315 315 315 315 314 313 313 313 313 313 312 311 310 310 310 310 311 310 310 310 310 310 311 311 311 313 314 314 315 316 316 317 318 319 319 318 317 317
311 312 312 312 310 309 308 309 309 310 312 313 312 311 311 312 313 313 313 313 313 314 315 315 312 310 310 310 309 308 307 307 307 306 306 305 305 304 303 303 304 306 306 305 305 305 305 305 305 305 306 307 309 311 313 314 314 315 316 317 317 317 317
304 305 307 308 307 305 305 304 304 304 305 305 305 305 305 306 307 307 308 310 311 311 312 311 309 308 308 308 307 306 306 306 305 304 303 303 302 302 302 302 302 304 305 304 303 303 303 302 302 302 302 302 303 305 308 310 312 314 315 315 316 316 316
299 299 300 301 301 300 300 301 301 300 301 300 300 300 300 300 301 301 302 303 304 305 306 305 304 303 303 303 303 303 303 303 302 302 301 302 301 300 300 300 301 302 302 302 301 301 300 300 300 300 300 300 300 300 301 303 305 306 309 311 312 314 315
298 298 298 298 298 298 298 298 298 298 299 298 299 299 298 299 299 299 299 299 299 300 300 299 299 299 299 299 299 299 300 300 299 299 299 299 299 299 299 299 299 299 299 299 299 299 299 299 299 299 299 299 299 299 299 299 299 300 301 303 305 309 312
Wind_Speed
14 14 13 13 13 12 10 9 8 7 7 7 7 7 8 8 9 9 10 11 11 12 13 13 12 12 11 11 13 13 12 11 11 14 16 17 20 19 17 15 9 9 15 13 10 13 14 14 12 9 8 8 8 10 10 9 10 11 12 11 9 8 9
13 13 12 12 11 11 9 9 8 7 7 7 7 7 7 7 8 9 10 11 12 12 12 12 12 13 13 12 15 15 13 13 12 12 15 17 18 17 17 15 8 9 13 10 8 10 11 13 13 11 11 10 9 9 10 10 11 11 11 10 9 8 8
13 12 11 10 10 10 10 9 8 7 7 7 7 7 7 6 7 8 10 11 12 12 11 11 13 15 15 14 15 16 15 14 14 12 14 16 16 15 16 13 9 10 13 11 9 9 9 10 12 14 13 11 9 8 9 9 9 10 9 9 9 8 8
14 13 12 12 11 11 11 11 10 8 7 7 7 6 7 7 7 8 9 10 11 12 11 12 13 14 15 15 15 16 16 16 15 14 15 17 15 12 12 11 10 12 14 14 12 10 10 10 11 14 13 11 10 8 9 9 9 8 8 7 7 8 9
14 14 14 13 13 12 10 11 11 10 9 8 8 7 7 7 7 7 8 9 10 11 12 12 13 14 15 15 15 16 17 16 15 15 16 16 14 10 10 11 11 12 13 14 13 11 10 10 11 14 14 12 10 9 8 10 9 8 7 7 7 8 9
15 14 14 13 12 11 10 10 11 10 10 9 9 9 9 8 8 8 8 8 9 10 12 12 12 13 14 15 16 16 17 17 16 15 15 15 14 11 11 12 12 12 11 11 10 9 10 10 11 12 13 11 10 10 9 9 9 8 7 7 7 8 8
15 14 14 13 12 12 11 10 10 9 9 9 9 9 9 10 9 9 9 9 9 9 11 12 12 12 13 14 15 16 16 16 15 14 14 14 13 12 12 12 13 13 13 11 9 8 9 10 10 12 13 11 10 10 9 9 9 8 8 7 8 8 8
15 15 13 13 13 12 11 10 9 9 8 8 8 8 8 9 10 10 10 10 9 9 10 11 11 11 12 12 14 15 15 14 14 13 13 13 12 11 11 11 12 13 14 12 9 8 9 9 10 12 13 12 11 10 9 9 8 8 9 9 8 8 9
15 15 14 14 14 13 12 10 10 9 8 8 8 7 7 8 8 9 10 10 10 10 10 10 10 10 11 12 12 13 13 13 13 12 12 12 12 11 10 10 11 12 14 13 10 9 11 11 10 11 12 11 11 11 10 9 8 9 10 9 8 8 8
16 15 16 16 15 14 12 11 10 9 8 7 6 7 7 7 7 8 9 10 11 11 11 11 10 9 9 10 11 12 12 12 11 11 11 11 11 10 9 10 10 10 12 13 10 10 13 13 12 12 11 9 9 11 11 10 9 10 10 9 8 9 9
16 16 17 17 15 13 11 10 9 7 6 5 5 6 7 7 8 9 10 10 10 11 11 12 11 10 9 10 11 11 11 11 11 10 9 8 8 8 9 10 9 9 11 12 12 12 13 13 13 12 10 7 7 9 10 10 10 9 10 9 7 8 10
17 16 16 16 14 12 10 9 8 7 5 4 5 6 7 7 8 9 10 11 11 11 11 12 11 10 10 10 11 11 10 11 10 9 9 8 8 9 9 10 10 11 14 15 14 14 13 12 12 11 9 7 7 8 9 10 11 9 9 9 8 8 10
17 17 16 16 14 12 11 10 8 7 5 4 5 6 6 5 5 7 9 9 10 10 11 11 11 10 10 10 11 11 11 11 10 10 10 9 9 9 9 11 11 12 15 16 16 16 14 13 12 11 9 8 8 9 9 9 10 10 9 9 9 9 10
17 16 16 16 15 14 13 11 9 8 6 5 6 6 6 5 5 6 7 8 8 9 11 11 11 11 10 9 10 11 11 11 10 10 10 10 10 10 9 10 11 13 15 15 15 16 15 14 13 12 11 10 9 9 9 8 9 10 9 9 8 9 10
17 16 16 16 16 15 13 12 10 8 7 6 6 6 5 6 6 6 8 8 8 9 10 11 11 10 10 10 10 11 12 11 9 9 10 10 10 11 11 10 11 13 15 14 15 15 14 13 13 11 11 11 10 10 9 7 8 9 9 9 8 9 10
17 16 15 16 17 16 14 12 10 9 7 6 6 7 6 5 6 8 9 9 9 9 9 10 10 9 9 11 11 12 13 11 10 11 11 10 9 10 11 11 11 12 14 15 15 15 14 13 11 11 11 10 10 9 8 7 7 7 8 9 8 9 11
18 16 15 16 16 16 14 12 11 9 8 6 6 7 6 6 7 8 9 8 8 8 8 9 11 10 10 10 10 12 13 12 11 10 10 9 9 8 9 10 10 11 13 15 15 15 14 13 12 11 11 10 9 9 9 8 7 7 7 9 9 9 10
17 17 17 17 16 15 14 13 11 9 7 7 7 6 6 7 7 8 8 7 7 7 6 7 9 10 11 12 11 10 11 11 10 9 9 9 9 8 8 9 10 10 11 13 15 15 16 15 13 11 11 10 9 9 9 8 8 8 8 9 10 10 10
17 18 17 16 15 14 14 13 11 9 8 8 7 6 6 7 8 8 8 8 7 7 7 7 7 8 9 11 12 12 11 11 10 9 10 9 9 9 8 9 10 10 10 11 12 14 16 16 14 12 11 10 9 9 9 9 9 9 10 10 10 11 11
18 19 17 16 16 15 14 13 10 9 9 8 7 7 7 7 8 8 8 8 8 7 7 7 7 8 8 9 11 13 14 13 11 11 11 10 10 11 9 10 12 12 11 11 11 12 15 15 15 13 11 10 9 8 8 8 9 10 10 11 11 12 12
19 19 18 18 18 17 16 14 11 10 10 9 8 7 7 8 8 9 9 8 7 7 7 6 7 8 7 7 9 11 13 13 11 12 12 11 12 12 11 11 12 12 12 12 12 13 14 14 13 12 10 10 9 9 8 8 8 9 10 11 11 12 12
20 20 19 20 20 19 17 14 12 11 10 10 10 9 8 8 8 8 8 8 7 9 10 10 10 11 9 7 7 9 12 12 10 10 10 10 11 11 11 12 13 13 13 12 13 13 13 13 12 10 9 9 10 9 9 8 9 9 9 10 11 12 12
21 21 20 21 21 19 16 13 12 12 12 11 11 11 9 8 7 7 7 8 10 11 11 10 10 11 12 10 8 8 9 10 9 8 8 8 9 9 10 11 14 16 15 14 14 14 13 13 13 11 10 10 10 9 9 9 10 10 10 11 11 11 12
22 22 22 22 20 16 13 11 11 13 14 13 13 12 10 8 8 7 7 8 10 10 10 9 9 9 10 10 10 9 8 9 9 8 7 7 7 7 8 8 11 14 14 14 14 14 14 14 13 12 12 11 11 11 10 10 11 11 11 12 12 12 13
23 23 23 21 18 15 14 13 13 15 16 15 14 13 12 10 10 9 8 8 8 8 8 8 8 8 8 8 8 7 7 8 9 8 7 7 6 7 7 7 9 11 12 12 12 13 13 13 13 13 12 12 12 12 12 12 12 12 12 13 13 14 15
23 25 24 21 18 16 16 17 17 17 17 17 16 14 13 11 10 10 10 9 8 8 8 8 7 8 8 8 8 7 5 6 7 7 8 8 8 8 8 7 8 10 12 13 12 12 12 13 14 15 15 14 15 14 15 15 15 14 14 13 14 15 15
21 22 22 20 17 17 18 19 19 18 18 18 17 16 14 12 10 10 10 9 9 9 9 8 8 7 7 7 7 6 6 6 7 7 8 9 10 10 10 9 8 8 10 12 12 13 13 13 15 17 18 18 18 18 19 19 18 17 17 17 17 17 16
20 20 20 18 16 17 18 19 19 18 18 18 17 16 15 13 11 10 11 11 10 10 10 9 8 8 7 6 6 6 6 7 8 9 10 10 11 11 12 12 11 10 11 13 14 15 15 15 16 18 19 20 20 21 22 23 22 21 20 20 21 20 19
20 21 20 18 17 17 17 17 18 17 16 16 16 16 15 13 12 11 11 11 11 11 11 10 10 9 8 8 7 7 8 8 9 10 11 11 11 12 13 13 13 13 14 16 18 18 17 18 18 19 20 21 22 23 23 24 24 23 22 23 23 23 22
20 20 19 18 18 17 17 16 16 15 14 14 14 15 14 13 12 12 11 12 12 12 11 11 11 10 10 10 10 10 10 11 11 12 13 13 13 15 16 15 15 16 17 19 20 20 19 20 20 21 22 24 24 24 24 25 26 25 25 26 27 27 27
18 18 17 17 17 16 16 16 15 15 14 13 13 13 13 13 13 13 13 13 13 12 12 11 11 11 11 11 11 12 12 13 14 14 15 16 16 18 19 19 19 20 21 23 23 23 23 24 23 24 25 24 25 25 24 24 27 29 29 30 30 31 32
16 14 13 13 14 14 15 14 13 13 12 12 11 12 12 13 13 14 15 15 14 15 14 13 12 11 11 11 12 12 13 14 15 15 16 17 17 18 21 22 21 21 22 23 23 24 24 24 24 25 25 25 26 26 24 22 23 25 27 29 31 32 33
14 13 12 10 10 11 11 10 9 10 11 12 11 11 11 11 12 14 13 12 12 14 15 14 12 11 11 11 11 13 14 15 16 17 17 18 18 19 21 22 23 23 22 22 24 24 25 25 26 26 26 26 27 26 26 25 24 24 24 26 29 31 32
11 11 10 8 7 9 8 7 7 8 11 12 11 10 9 10 12 13 13 12 12 13 14 14 12 11 12 13 14 16 17 19 19 20 20 20 20 21 21 21 24 27 26 25 26 26 27 28 29 29 29 29 29 28 29 30 29 29 28 28 28 30 31
9 8 7 6 5 6 7 6 5 6 8 8 8 7 7 8 9 10 11 12 14 14 15 16 15 15 16 17 18 19 20 22 22 22 22 23 23 24 24 25 28 30 30 29 29 29 30 30 31 32 31 31 31 31 31 32 32 31 31 30 27 27 28
9 8 8 7 6 6 6 6 5 5 5 5 5 5 6 7 8 8 9 10 12 14 15 16 17 17 18 19 20 20 21 23 23 23 24 25 25 26 27 28 30 31 32 32 32 32 32 31 32 32 32 31 31 31 32 34 34 34 35 33 30 25 24
8 7 7 6 5 4 4 4 4 4 4 4 5 6 6 7 7 7 8 9 11 12 13 15 16 16 17 19 20 20 21 23 23 24 24 24 25 26 27 28 29 30 31 32 33 33 33 32 32 32 31 31 32 32 32 33 34 34 35 35 34 30 25
Wind_Direction
186 190 193 199 200 203 206 202 203 209 206 205 203 205 212 209 206 205 200 196 195 197 200 201 197 191 188 193 196 192 193 200 197 194 194 194 194 187 180 179 170 172 176 172 169 161 151 148 144 141 142 135 135 144 140 138 144 142 135 126 117 117 116
185 190 192 193 191 188 189 188 189 195 193 187 187 190 194 199 204 203 201 197 196 198 201 201 199 193 188 193 198 193 191 195 194 195 198 197 197 190 183 180 173 172 176 176 178 166 153 151 147 144 145 139 135 147 151 149 148 145 139 132 119 114 117
181 185 186 181 179 176 178 180 179 182 183 179 180 180 180 188 198 200 199 196 197 202 201 198 198 196 194 195 198 198 197 195 191 195 202 201 201 200 192 180 168 174 178 179 179 170 159 154 152 151 150 146 141 147 155 152 148 148 144 135 124 120 121
183 183 178 174 176 176 179 176 171 174 177 179 182 182 183 183 186 193 196 196 200 201 195 193 195 197 200 200 197 200 203 198 192 195 201 204 207 212 207 190 177 182 184 182 178 171 164 155 151 153 152 151 145 146 160 155 144 145 144 139 134 132 130
187 184 179 179 179 175 177 172 167 172 180 184 186 190 193 187 185 189 190 194 198 195 191 194 197 199 201 203 201 203 205 204 201 200 201 205 208 214 219 209 198 195 191 189 184 173 163 156 154 155 153 150 143 139 154 151 141 143 144 142 140 137 136
185 183 184 184 177 173 177 174 170 174 180 184 186 187 191 189 187 189 189 192 194 194 196 196 197 200 201 203 204 203 205 206 207 208 206 209 212 213 215 215 213 207 196 192 191 176 158 153 156 158 154 150 144 140 146 145 139 144 145 143 145 143 140
180 180 182 182 177 176 179 175 169 171 174 176 179 184 186 186 187 188 190 193 195 196 198 196 193 196 201 203 203 203 204 205 206 209 208 210 216 215 210 212 216 214 197 182 177 170 160 158 162 161 154 147 145 145 146 146 144 145 147 150 153 149 148
179 179 180 182 181 176 171 166 162 162 163 167 178 186 186 184 186 188 190 192 196 197 195 196 195 195 200 202 202 201 201 202 204 208 208 209 213 211 207 205 208 208 196 177 165 168 169 167 166 163 154 147 148 149 149 150 151 150 151 155 157 157 162
177 177 181 184 180 172 164 159 160 161 163 171 184 191 190 188 188 188 188 189 194 195 193 195 198 201 203 200 198 196 198 201 202 204 206 206 205 201 200 196 191 190 185 172 165 175 175 169 166 163 156 152 153 154 155 157 154 152 155 158 159 167 175
176 180 183 180 173 170 164 159 163 166 169 182 192 194 194 195 193 186 185 189 194 196 194 194 197 203 206 203 197 192 195 198 197 201 204 201 197 194 197 196 182 177 180 169 164 178 176 168 165 162 157 158 160 159 160 161 158 157 162 165 164 172 179
175 180 180 174 168 167 162 157 160 163 168 185 191 192 193 194 196 189 184 189 196 198 199 198 199 202 205 208 201 191 194 197 196 204 203 192 188 187 196 195 177 173 180 169 166 174 169 160 161 162 160 161 167 166 164 160 156 159 166 167 169 177 180
173 174 175 173 168 164 161 156 156 157 163 175 178 182 185 187 192 192 190 194 198 200 202 199 200 202 200 206 206 199 200 198 197 204 200 190 189 188 194 191 177 179 179 170 169 167 159 157 159 159 158 155 157 163 164 158 153 158 168 169 169 179 184
173 173 174 172 168 165 164 160 158 161 160 159 171 176 177 179 186 192 193 197 201 204 206 202 202 203 197 197 202 203 201 195 194 199 196 192 190 187 190 185 178 181 178 172 170 164 159 161 160 157 158 152 146 154 162 160 154 156 167 173 171 178 188
175 176 175 171 170 168 166 165 165 166 160 162 172 172 176 183 184 187 187 190 198 202 205 206 204 201 194 191 193 195 194 190 191 194 188 185 182 174 176 177 176 179 177 174 170 166 165 164 159 159 160 155 150 154 162 162 155 157 169 179 176 181 195
178 179 177 173 172 170 167 168 169 168 168 173 169 164 182 193 181 178 182 184 190 191 194 200 200 194 187 185 186 184 182 179 179 180 173 170 167 161 162 169 174 175 175 175 172 168 168 166 162 163 164 163 162 162 168 168 160 163 177 186 183 185 200
180 181 179 176 174 170 169 170 169 167 173 179 168 167 183 185 173 175 180 180 179 178 180 182 179 172 166 168 170 167 164 163 165 163 157 154 154 150 150 158 166 169 170 173 173 172 172 170 168 170 171 172 174 174 180 182 176 177 184 193 195 193 205
180 180 179 177 174 171 169 168 168 168 172 178 174 176 176 169 170 177 177 173 167 165 169 167 162 157 155 155 157 159 158 155 156 154 150 153 153 145 140 141 147 159 168 172 174 176 177 174 172 175 177 178 182 186 192 196 198 198 196 201 205 205 212
180 178 176 175 173 172 170 168 171 170 171 175 174 173 169 164 169 172 169 170 169 168 169 166 165 167 165 159 155 157 157 154 152 153 155 157 154 151 151 147 142 146 160 173 181 184 182 178 178 180 183 184 187 194 204 210 214 217 217 213 213 215 216
181 175 171 170 171 172 171 171 170 166 166 171 169 164 164 165 169 171 170 170 175 179 174 167 168 172 170 166 164 165 164 161 159 159 160 160 159 159 159 162 160 154 156 168 181 188 188 187 187 186 189 193 195 202 214 222 225 228 230 228 224 220 217
180 172 169 169 170 170 171 170 164 160 163 165 160 156 161 166 166 168 172 171 174 180 176 172 172 170 170 171 172 175 175 173 172 173 174 175 177 174 168 171 172 169 170 171 173 181 187 191 195 194 194 199 204 213 222 228 232 233 234 235 232 226 223
179 173 172 171 170 170 169 166 162 160 160 156 149 145 149 157 158 163 171 171 172 177 172 175 177 171 174 180 181 184 184 181 183 187 188 190 192 189 182 177 173 172 179 179 173 174 178 185 193 196 201 207 211 219 225 228 233 233 232 234 232 231 232
180 178 177 172 170 169 167 165 164 161 158 157 155 147 143 149 153 159 166 168 180 188 184 186 185 177 176 180 185 192 190 186 187 190 191 195 197 193 185 182 178 177 183 184 181 181 182 187 193 196 209 218 216 220 225 227 229 228 229 231 230 232 235
183 180 178 172 169 168 165 164 166 166 165 164 162 155 148 148 150 153 163 176 189 192 188 188 188 184 179 175 176 186 189 189 188 186 186 188 189 183 178 183 185 185 188 190 192 195 198 204 208 205 209 215 217 224 230 233 233 231 230 231 231 232 233
184 181 178 175 174 174 175 178 182 181 179 174 168 164 161 162 163 165 174 182 182 181 182 183 185 187 184 178 175 174 176 182 183 183 183 183 186 185 180 187 193 195 199 202 205 209 211 214 217 216 217 222 225 230 233 236 240 239 239 239 238 239 239
185 182 181 181 183 186 188 192 198 197 192 186 180 177 176 179 184 189 193 191 186 185 188 190 191 191 189 189 185 174 173 182 180 180 183 180 183 188 186 193 202 204 208 210 213 219 220 221 224 226 231 234 235 237 237 237 240 240 244 248 248 247 247
185 184 186 188 192 197 196 195 199 200 197 195 192 189 188 189 193 199 203 203 202 201 199 198 199 195 192 195 190 177 181 191 185 186 194 192 192 194 194 203 214 220 222 221 224 230 234 237 238 237 240 241 241 242 241 242 242 240 241 245 248 250 250
187 190 197 198 197 200 198 195 195 197 198 199 199 198 197 197 199 202 206 209 211 213 213 212 210 206 202 200 196 191 199 205 204 209 212 212 215 217 218 220 225 233 239 239 241 244 245 250 251 249 249 249 248 247 245 244 245 243 242 242 245 248 249
187 193 201 200 196 198 197 196 197 198 199 200 203 205 204 204 206 207 208 210 212 214 219 221 222 224 225 225 224 224 227 229 231 233 232 232 235 236 237 238 238 243 250 252 252 250 250 253 255 257 258 257 256 255 252 249 247 247 248 247 247 249 250
182 186 187 185 185 189 192 195 196 196 198 200 202 205 205 206 211 215 216 217 217 217 220 224 227 231 237 243 246 246 246 248 249 249 248 248 250 250 248 247 248 249 253 255 254 253 253 255 257 260 262 262 262 262 260 258 254 252 254 255 254 253 254
173 175 177 177 178 179 181 185 188 190 194 195 196 198 199 203 210 217 224 227 226 224 223 224 228 233 239 245 249 252 254 255 256 258 259 260 261 260 258 256 258 258 258 258 259 259 260 261 262 263 264 265 265 265 265 265 263 260 259 260 261 260 259
157 160 165 168 170 172 172 174 177 181 184 187 193 195 195 201 209 217 224 229 232 234 232 229 229 233 239 245 251 254 257 259 261 262 264 264 264 265 265 263 263 263 263 264 266 266 266 266 266 267 267 267 267 266 266 268 270 270 268 265 264 264 263
149 153 158 162 167 170 172 174 175 179 185 190 197 204 204 206 211 215 217 220 225 231 234 232 231 236 243 249 255 259 260 263 265 265 266 268 267 269 270 269 266 265 265 267 269 269 270 270 269 269 270 270 270 271 270 268 270 273 274 272 271 269 267
152 154 154 158 162 161 171 186 188 196 211 214 215 222 225 225 229 228 224 222 228 233 235 234 234 241 252 259 264 269 270 270 272 271 270 271 271 272 274 274 272 270 269 270 272 273 274 274 273 272 271 270 270 271 271 269 266 265 267 271 274 274 272
147 150 148 153 154 145 151 169 176 192 210 214 217 226 228 229 237 241 239 238 241 242 241 243 248 254 262 267 270 272 273 273 275 274 272 272 271 270 271 270 271 274 276 275 274 274 275 275 274 273 271 270 269 267 266 266 265 262 262 265 268 270 270
131 136 139 150 158 146 147 165 179 192 203 206 212 221 223 227 237 245 249 249 249 249 250 257 267 272 274 273 272 274 275 275 276 276 275 276 274 273 273 271 273 278 281 279 277 276 275 275 274 273 272 270 269 266 264 264 262 260 261 262 263 265 264
115 118 121 129 136 137 147 168 187 203 216 224 233 239 238 238 242 248 256 259 261 264 267 272 277 280 280 279 278 277 277 277 278 279 279 279 278 277 277 276 278 282 284 283 283 282 281 280 278 277 276 275 273 271 268 266 265 264 263 262 262 261 259
102 105 110 118 127 137 151 168 183 198 213 225 239 251 256 258 261 263 268 270 270 272 276 279 281 282 282 283 284 283 282 283 284 284 285 285 285 284 283 283 285 287 288 287 287 287 287 286 284 283 282 281 280 278 276 273 272 270 268 266 264 261 258